Weather observations for the past three days for
Palm Springs, Jacqueline Cochran Regional Airport
Imperial (Metric)
Date Time (pdt) Wind (mph) Vis. (mi.) Weather Sky Cond. Temperature (ºF) Relative Humidity Wind Chill (°F) Heat Index (°F) Pressure Precipitation (in)
Air Dwpt 6 hour altimeter (in) sea level (mb) 1 hr 3 hr 6 hr
Max. Min.
14 03:52 NW 8 10.00 Fair CLR 82 44.1 26% 80 29.72 1006.6
14 02:52 NW 15 G 24 10.00 Fair CLR 84 42.1 23% 81 29.71 1006.2
14 01:52 NW 20 G 26 10.00 Fair CLR 86 37.9 18% 83 29.71 1006.3
14 00:52 NW 18 G 28 10.00 Fair CLR 86 37.9 18% 83 29.71 1006.3
13 23:52 NW 21 G 28 10.00 Fair and Breezy CLR 87.1 42.1 21% 84 29.72 1006.7
13 21:52 NW 14 G 25 10.00 Fair CLR 89.1 46 23% 86 29.73 1007.2
13 20:52 NW 21 G 33 10.00 Fair and Breezy CLR 91 48 23% 88 29.71 1006.5
13 19:52 N 20 G 28 10.00 Fair CLR 93.9 48 21% 90 29.71 1006.4
13 18:52 NW 21 G 26 9.00 Fair and Breezy CLR 99 46.9 17% 95 29.7 1006.0
13 17:52 NW 18 G 25 10.00 Fair CLR 102 45 14% 98 29.68 1005.4
13 16:52 NW 15 10.00 Fair CLR 106 39.9 108 98.1 10% 101 29.69 1005.7
13 15:52 SE 8 10.00 Fair CLR 107.1 35.1 8% 101 29.69 1005.8
13 14:52 SE 12 10.00 Fair CLR 108 33.1 7% 101 29.71 1006.3
13 13:52 Vrbl 5 10.00 Fair CLR 106 33.1 8% 100 29.73 1007.2
13 12:52 SE 7 10.00 Fair CLR 104 37 10% 99 29.77 1008.2
13 11:52 Vrbl 3 10.00 Fair CLR 100.9 37 11% 96 29.79 1008.9
13 10:52 Vrbl 5 10.00 Fair CLR 99 39.9 99 64.9 13% 94 29.79 1009.2
13 09:52 NW 7 10.00 Fair CLR 93.9 42.1 17% 90 29.8 1009.4
13 08:52 NW 8 10.00 Fair CLR 91 43 19% 87 29.81 1009.6
13 07:52 Calm 10.00 Fair CLR 84 48.9 30% 82 29.8 1009.6
13 06:52 W 5 10.00 Fair CLR 72 48.9 44% 29.79 1009.0
13 05:52 Calm 10.00 Fair CLR 64.9 44.1 47% 29.78 1008.5
13 04:52 S 3 10.00 Fair CLR 69.1 42.1 90 66.9 38% 29.76 1007.9
13 03:52 E 6 10.00 Fair CLR 71.1 42.1 35% 29.74 1007.4
13 01:52 W 6 10.00 Fair CLR 78.1 39 25% 78 29.73 1007.2
13 00:52 NW 9 10.00 Fair CLR 84 39 20% 81 29.74 1007.4
12 23:52 N 6 10.00 Fair CLR 84.9 36 17% 82 29.74 1007.5
12 22:52 NW 10 10.00 Fair CLR 90 39 106 90 17% 86 29.74 1007.4
12 21:52 N 7 10.00 Fair CLR 91 39.9 17% 87 29.73 1007.2
12 20:52 N 6 10.00 Fair CLR 93 41 16% 89 29.71 1006.5
12 19:52 N 6 10.00 Fair CLR 96.1 44.1 17% 92 29.7 1006.1
12 18:52 SE 6 10.00 Fair CLR 102.9 46 15% 99 29.69 1005.8
12 17:52 S 7 10.00 Fair CLR 105.1 46 14% 101 29.69 1005.6
12 16:52 Vrbl 3 10.00 Fair CLR 106 48.9 106 95 15% 103 29.71 1006.2
12 15:52 Vrbl 5 10.00 Fair CLR 104 51.1 17% 101 29.73 1007.7
12 14:52 SE 7 10.00 Fair CLR 104 51.1 17% 101 29.74 1007.5
12 13:52 Vrbl 7 10.00 Fair CLR 102.9 51.1 18% 100 29.76 1008.1
12 12:52 Vrbl 5 10.00 Fair CLR 102 53.1 19% 100 29.79 1008.9
12 11:52 Vrbl 7 10.00 Fair CLR 100 52 20% 97 29.81 1009.6
12 10:52 Calm 10.00 Fair CLR 95 54 95 64.9 25% 93 29.82 1010.0
12 09:52 NW 3 10.00 Fair CLR 91 55 30% 89 29.82 1010.1
12 08:52 NW 8 10.00 Fair CLR 89.1 57 34% 88 29.83 1010.3
12 07:52 NW 5 10.00 Fair CLR 82.9 61 48% 83 29.82 1010.7
12 06:52 Calm 10.00 Fair CLR 73.9 60.1 62% 29.8 1009.5
12 04:52 NW 6 10.00 Fair CLR 73 59 87.1 68 62% 29.76 1007.9
12 03:52 E 3 10.00 Fair CLR 69.1 57 66% 29.74 1007.4
12 02:52 N 6 10.00 Fair CLR 79 57.9 49% 80 29.73 1006.9
12 01:52 N 9 10.00 Fair CLR 81 57 44% 81 29.71 1006.4
12 00:52 N 9 10.00 Fair CLR 82 57.9 44% 82 29.71 1006.4
11 23:52 N 7 10.00 Fair CLR 84 57.9 41% 83 29.71 1006.4
11 22:52 N 7 10.00 Fair CLR 87.1 57.9 107.1 80.1 37% 86 29.71 1006.3
11 21:52 NW 7 10.00 Fair CLR 84.9 50 30% 83 29.7 1006.1
11 20:52 SW 3 10.00 Fair CLR 82.9 48.9 31% 81 29.67 1005.0
11 19:52 Calm 10.00 Fair CLR 90 48.9 24% 87 29.66 1004.4
11 18:52 E 8 10.00 Fair CLR 100.9 44.1 14% 97 29.65 1004.2
11 17:52 SE 10 10.00 Fair CLR 105.1 44.1 13% 101 29.64 1004.0
11 16:52 SE 10 10.00 Fair CLR 106 45 108 93.9 13% 102 29.66 1004.5
11 15:52 S 8 G 18 10.00 Fair CLR 107.1 46.9 13% 103 29.68 1005.2
11 14:52 SE 7 10.00 Fair CLR 105.1 48 15% 102 29.7 1006.0
11 13:52 Vrbl 6 10.00 Fair CLR 102 48 16% 99 29.72 1006.8
11 12:52 SE 7 10.00 Fair CLR 99 46.9 17% 95 29.75 1007.7
11 11:52 Vrbl 7 10.00 Fair CLR 97 46.9 18% 93 29.77 1008.5
11 10:52 SE 9 10.00 Fair CLR 93.9 50 95 64.9 22% 91 29.78 1008.7
11 09:52 SE 8 10.00 Fair CLR 91 50 25% 88 29.78 1008.7
11 08:52 SE 7 10.00 Fair CLR 87.1 57 36% 86 29.79 1009.1
11 07:52 SE 7 10.00 Fair CLR 82 59 46% 82 29.79 1009.8
11 06:52 S 5 10.00 Fair CLR 79 59 50% 80 29.77 1008.4
11 05:52 SE 8 10.00 Fair CLR 66 55.9 70% 29.74 1007.3
11 04:52 W 3 10.00 Fair CLR 70 55.9 87.1 70 61% 29.72 1006.5
Date Time (pdt) Wind (mph) Vis. (mi.) Weather Sky Cond. Air Dwpt Max. Min. Relative Humidity Wind Chill (°F) Heat Index (°F) altimeter (in) sea level (mb) 1 hr 3 hr 6 hr
6 hour
Temperature (ºF) Pressure Precipitation (in)